GW6233 Weather Reports


Display with metric or nautical units.
time (UTC)temp
F
wind
direction
speed
MPH
gust
MPH
rain 1hr
in
rain 24hr
in
rain mn
in
humidity
%
barometer
mb
20260506182844 66 210 2.0 6.0 0.00 0.00 0.00 79 1007.5
20260506181842 66 194 2.0 4.0 0.00 0.00 0.00 78 1007.5
20260506180840 67 188 3.0 6.0 0.00 0.00 0.00 78 1007.6
20260506175918 67 189 2.0 9.0 0.00 0.00 0.00 77 1007.6
20260506174836 67 187 2.0 6.0 0.00 0.00 0.00 76 1007.8
20260506173834 68 192 2.0 6.0 0.00 0.00 0.00 75 1007.8
20260506172832 68 190 1.0 4.0 0.00 0.00 0.00 75 1007.9
20260506171830 68 207 3.0 6.0 0.00 0.00 0.00 75 1007.9
20260506170828 68 160 1.0 4.0 0.00 0.00 0.00 76 1008.0
20260506165826 68 175 2.0 4.0 0.00 0.00 0.00 76 1008.0
20260506164824 68 212 2.0 4.0 0.00 0.00 0.00 78 1008.2
20260506163823 69 200 2.0 4.0 0.00 0.00 0.00 74 1008.5
20260506162820 70 192 3.0 6.0 0.00 0.00 0.00 71 1008.7
20260506161818 70 210 2.0 6.0 0.00 0.00 0.00 70 1009.0
20260506160816 69 204 3.0 6.0 0.00 0.00 0.00 70 1009.1
20260506155836 69 180 3.0 6.0 0.00 0.00 0.00 69 1009.1
20260506154813 69 201 3.0 6.0 0.00 0.00 0.00 69 1009.0
20260506153810 69 181 2.0 6.0 0.00 0.00 0.00 69 1009.0
20260506152809 69 204 2.0 4.0 0.00 0.00 0.00 68 1009.2
20260506151808 69 200 2.0 6.0 0.00 0.00 0.00 68 1009.2
20260506150804 70 194 2.0 4.0 0.00 0.00 0.00 68 1009.1
20260506145824 69 214 2.0 7.0 0.00 0.00 0.00 68 1009.1
20260506144821 69 212 2.0 4.0 0.00 0.00 0.00 68 1009.2
20260506143758 69 206 3.0 6.0 0.00 0.00 0.00 67 1009.2
20260506142757 69 187 2.0 6.0 0.00 0.00 0.00 67 1009.3
20260506141755 70 195 2.0 6.0 0.00 0.00 0.00 67 1009.3
20260506140752 69 203 2.0 6.0 0.00 0.00 0.00 67 1009.1
20260506135751 69 192 2.0 6.0 0.00 0.00 0.00 68 1008.9
20260506134748 69 208 2.0 4.0 0.00 0.00 0.00 68 1009.0
20260506133747 69 186 2.0 6.0 0.00 0.00 0.00 67 1009.0
20260506132745 69 196 2.0 4.0 0.00 0.00 0.00 68 1009.0
20260506131802 69 186 2.0 4.0 0.00 0.00 0.00 69 1009.2
20260506130802 69 193 2.0 6.0 0.00 0.00 0.00 70 1009.4
20260506125738 68 184 1.0 4.0 0.00 0.00 0.00 72 1009.5
20260506124758 67 183 2.0 4.0 0.00 0.00 0.00 73 1009.3
20260506123733 66 181 2.0 6.0 0.00 0.00 0.00 74 1009.4
20260506122732 66 198 2.0 4.0 0.00 0.00 0.00 75 1009.4
20260506121750 65 204 1.0 4.0 0.00 0.00 0.00 75 1009.5
20260506120749 65 195 2.0 4.0 0.00 0.00 0.00 75 1009.5
20260506115747 65 215 3.0 6.0 0.00 0.00 0.00 76 1009.4
20260506114724 63 175 2.0 4.0 0.00 0.00 0.00 78 1009.4
20260506113721 63 175 2.0 4.0 0.00 0.00 0.00 78 1009.4
20260506112719 63 189 1.0 6.0 0.00 0.00 0.00 79 1009.5
20260506111718 63 172 1.0 4.0 0.00 0.00 0.00 79 1009.5
20260506110737 62 158 1.0 4.0 0.00 0.00 0.00 79 1009.5
20260506105735 62 162 2.0 4.0 0.00 0.00 0.00 80 1009.4
20260506104734 62 170 1.0 3.0 0.00 0.00 0.00 80 1009.5
20260506103711 62 170 2.0 6.0 0.00 0.00 0.00 80 1009.5
20260506102728 62 175 1.0 3.0 0.00 0.00 0.00 80 1009.5
20260506101707 62 172 1.0 4.0 0.00 0.00 0.00 80 1009.3
20260506100724 62 174 1.0 4.0 0.00 0.00 0.00 80 1009.3
20260506095724 62 156 1.0 4.0 0.00 0.00 0.00 80 1009.2
20260506094700 62 169 1.0 4.0 0.00 0.00 0.00 81 1009.2
20260506093658 62 164 1.0 4.0 0.00 0.00 0.00 81 1009.1
20260506092656 62 176 1.0 4.0 0.00 0.00 0.00 81 1009.3
20260506091654 62 167 1.0 4.0 0.00 0.00 0.00 81 1009.3
20260506090652 62 180 1.0 4.0 0.00 0.00 0.00 81 1009.4
20260506085650 63 167 1.0 4.0 0.00 0.00 0.00 81 1009.6
20260506084648 63 147 1.0 6.0 0.00 0.00 0.00 81 1009.6
20260506083646 63 175 1.0 4.0 0.00 0.00 0.00 81 1009.7
20260506082643 63 159 1.0 4.0 0.00 0.00 0.00 81 1009.7
20260506081642 63 164 1.0 4.0 0.00 0.00 0.00 80 1009.6
20260506080639 63 159 1.0 4.0 0.00 0.00 0.00 80 1009.6
20260506072632 63 150 2.0 4.0 0.00 0.00 0.00 80 1009.7
20260506071631 64 158 1.0 3.0 0.00 0.00 0.00 80 1009.7
20260506070628 64 159 2.0 4.0 0.00 0.00 0.00 79 1009.8
20260506061658 65 159 1.0 4.0 0.00 0.00 0.00 78 1009.8
20260506060618 65 165 2.0 6.0 0.00 0.00 0.00 78 1009.9
20260506050603 65 161 1.0 4.0 0.00 0.00 0.00 76 1010.3
20260506044559 65 194 2.0 4.0 0.00 0.00 0.00 76 1010.4
20260506043557 65 173 1.0 6.0 0.00 0.00 0.00 76 1010.4
20260506042615 66 193 2.0 4.0 0.00 0.00 0.00 75 1010.4
20260506041555 66 168 1.0 4.0 0.00 0.00 0.00 75 1010.4
20260506040553 65 172 1.0 9.0 0.00 0.00 0.00 75 1010.3
20260506035550 66 188 1.0 4.0 0.00 0.00 0.00 74 1010.4
20260506034548 66 185 1.0 3.0 0.00 0.00 0.00 74 1010.3
20260506033547 66 174 2.0 7.0 0.00 0.00 0.00 73 1010.4
20260506032544 66 169 2.0 4.0 0.00 0.00 0.00 73 1010.4
20260506031603 66 168 2.0 4.0 0.00 0.00 0.00 73 1010.4
20260506030540 67 181 2.0 6.0 0.00 0.00 0.00 72 1010.5
20260506025538 67 174 1.0 6.0 0.00 0.00 0.00 72 1010.4
20260506024536 67 186 2.0 4.0 0.00 0.00 0.00 71 1010.5
20260506023535 67 169 2.0 6.0 0.00 0.00 0.00 70 1010.5
20260506022555 68 178 2.0 4.0 0.00 0.00 0.00 69 1010.5
20260506021530 68 159 2.0 4.0 0.00 0.00 0.00 68 1010.5
20260506020527 68 184 2.0 6.0 0.00 0.00 0.00 67 1010.5
20260506015528 69 190 2.0 6.0 0.00 0.00 0.00 66 1010.4
20260506014544 69 165 1.0 4.0 0.00 0.00 0.00 65 1010.4
20260506013522 69 173 2.0 6.0 0.00 0.00 0.00 64 1010.3
20260506012540 69 176 2.0 4.0 0.00 0.00 0.00 63 1010.2
20260506011518 69 165 2.0 6.0 0.00 0.00 0.00 63 1010.2
20260506010517 70 153 1.0 4.0 0.00 0.00 0.00 63 1010.1
20260506005513 70 166 2.0 6.0 0.00 0.00 0.00 62 1010.1
20260506004512 70 164 1.0 4.0 0.00 0.00 0.00 62 1009.8
20260506003533 70 147 1.0 3.0 0.00 0.00 0.00 62 1009.7
20260506002528 71 170 1.0 4.0 0.00 0.00 0.00 61 1009.7
20260506001506 71 148 1.0 4.0 0.00 0.00 0.00 61 1009.8
20260506000504 72 149 2.0 7.0 0.00 0.00 0.00 60 1009.7
20260505235000 73 147 2.0 4.0 0.00 0.00 0.00 58 1009.6
20260505234000 74 168 2.0 6.0 0.00 0.00 0.00 56 1009.4
20260505232457 75 169 1.0 4.0 0.00 0.00 0.00 54 1009.3
20260505231453 76 175 1.0 4.0 0.00 0.00 0.00 53 1009.3
20260505230453 77 167 2.0 4.0 0.00 0.00 0.00 50 1009.2
20260505225449 78 181 1.0 4.0 0.00 0.00 0.00 48 1009.2
20260505224448 80 162 2.0 6.0 0.00 0.00 0.00 46 1009.1
20260505223445 80 193 2.0 6.0 0.00 0.00 0.00 44 1009.0
20260505222506 81 207 3.0 7.0 0.00 0.00 0.00 43 1008.8
20260505221442 82 195 3.0 6.0 0.00 0.00 0.00 43 1009.0
20260505220502 83 201 3.0 7.0 0.00 0.00 0.00 43 1008.8
20260505215438 83 203 2.0 6.0 0.00 0.00 0.00 42 1008.7
20260505214437 83 216 3.0 10.0 0.00 0.00 0.00 41 1008.6
20260505213436 84 189 3.0 7.0 0.00 0.00 0.00 41 1008.6
20260505212432 84 180 2.0 4.0 0.00 0.00 0.00 41 1008.4
20260505211431 84 186 2.0 7.0 0.00 0.00 0.00 41 1008.4
20260505210428 85 215 4.0 9.0 0.00 0.00 0.00 41 1008.2
20260505205446 85 227 4.0 9.0 0.00 0.00 0.00 40 1008.3
20260505204445 85 201 4.0 7.0 0.00 0.00 0.00 40 1008.2
20260505203422 85 201 2.0 6.0 0.00 0.00 0.00 41 1008.2
20260505202421 86 211 3.0 6.0 0.00 0.00 0.00 41 1008.3
20260505201420 86 207 3.0 6.0 0.00 0.00 0.00 42 1008.3
20260505200436 85 218 3.0 9.0 0.00 0.00 0.00 41 1008.3
20260505195414 85 220 4.0 9.0 0.00 0.00 0.00 41 1008.5
20260505194413 86 213 3.0 6.0 0.00 0.00 0.00 41 1008.6
20260505193411 86 213 3.0 6.0 0.00 0.00 0.00 41 1008.6
20260505192448 86 199 3.0 6.0 0.00 0.00 0.00 42 1008.6
20260505191406 86 215 3.0 7.0 0.00 0.00 0.00 43 1008.8
20260505190405 87 198 4.0 9.0 0.00 0.00 0.00 41 1009.0
20260505185405 87 214 2.0 7.0 0.00 0.00 0.00 42 1009.2
20260505184401 86 190 2.0 6.0 0.00 0.00 0.00 43 1009.1
20260505183358 86 227 3.0 6.0 0.00 0.00 0.00 43 1009.2